Weather History for KIBM - June, 2013

Change the Weather History Date:

Monday, June 24, 2013

  Actual Average (KSNY) Record (KSNY)
Temperature  
Mean Temperature 76 °F 71 °F  
Max Temperature 91 °F 86 °F 102 °F (2012)
Min Temperature 60 °F 56 °F 37 °F (1993)
Degree Days  
Heating Degree Days 0 1  
Month to date heating degree days 55  
Since 1 June heating degree days 55  
Since 1 July heating degree days 6217  
Cooling Degree Days 10 7  
Month to date cooling degree days 92  
Year to date cooling degree days 114  
Since 1 June cooling degree days 92  
Growing Degree Days 26 (Base 50)    
Moisture  
Dew Point 44 °F    
Average Humidity 36    
Maximum Humidity 68    
Minimum Humidity 13    
Precipitation  
Precipitation 0.00 in 0.10 in 0.86 in (1969)
Month to date precipitation 2.64  
Year to date precipitation 9.40  
Sea Level Pressure  
Sea Level Pressure 29.83 in    
Wind  
Wind Speed 18 mph (South)    
Max Wind Speed 28 mph    
Max Gust Speed 37 mph    
Visibility 10 miles    
Events Thunderstorm    
T = Trace of Precipitation, MM = Missing Value Source: NWS Daily Summary

Daily Weather History Graph

Daily Weather History Graph

Search for Another Location

Airport or City:

Trip Planner

Search our weather history database for the weather conditions in past years. The results will help you decide how hot, cold, wet, or windy it might be!

Date:

Astronomy

Jun. 24, 2013 Rise Set
Actual Time 6:22 AM CDT 9:31 PM CDT
Civil Twilight 5:49 AM CDT 10:05 PM CDT
Nautical Twilight 5:05 AM CDT 10:48 PM CDT
Astronomical Twilight 4:14 AM CDT 11:39 PM CDT
Moon 10:34 PM CDT (6/24) 7:54 AM CDT (6/24)
Length of Visible Light 16h 16m
Length of Day
15h 08m
Full, 98% of the Moon is Illuminated
Jun 24
Full
Jun 29
Last Quarter
Jul 8
New
Jul 15
First Quarter
Jul 22
Full

Hourly Weather History & Observations

Time (CDT) Temp. Dew Point Humidity Pressure Visibility Wind Dir Wind Speed Gust Speed Precip Events Conditions
12:15 AM 68.4 °F 43.2 °F 40% 29.94 in 10.0 mi South 17.3 mph - N/A   Scattered Clouds
12:35 AM 68.0 °F 44.4 °F 43% 29.92 in 10.0 mi South 20.7 mph 34.5 mph N/A   Mostly Cloudy
12:55 AM 66.9 °F 46.8 °F 48% 29.92 in 10.0 mi South 23.0 mph 31.1 mph N/A   Scattered Clouds
1:15 AM 70.2 °F 43.5 °F 38% 29.89 in 10.0 mi SSE 27.6 mph 35.7 mph N/A   Mostly Cloudy
1:35 AM 67.3 °F 48.9 °F 52% 29.90 in 10.0 mi South 20.7 mph 36.8 mph N/A Thunderstorm Mostly Cloudy
1:55 AM 68.7 °F 46.2 °F 44% 29.89 in 10.0 mi SSE 25.3 mph 35.7 mph N/A   Overcast
2:15 AM 68.9 °F 44.4 °F 41% 29.86 in 10.0 mi SE 24.2 mph 31.1 mph N/A   Overcast
2:35 AM 70.7 °F 41.0 °F 34% 29.88 in 10.0 mi SSE 19.6 mph 25.3 mph N/A   Scattered Clouds
2:55 AM 70.2 °F 40.6 °F 34% 29.86 in 10.0 mi SSE 19.6 mph 26.5 mph N/A   Clear
3:15 AM 69.8 °F 40.8 °F 35% 29.86 in 10.0 mi SE 21.9 mph 27.6 mph N/A   Clear
3:35 AM 70.9 °F 38.8 °F 31% 29.86 in 10.0 mi SSE 16.1 mph 20.7 mph N/A   Clear
3:55 AM 70.3 °F 40.3 °F 34% 29.88 in 10.0 mi SW 9.2 mph - N/A   Clear
4:15 AM 68.5 °F 44.2 °F 42% 29.89 in 10.0 mi SW 12.7 mph - N/A   Clear
4:35 AM 66.4 °F 47.3 °F 50% 29.88 in 10.0 mi SSW 19.6 mph - N/A   Clear
4:55 AM 63.9 °F 48.6 °F 57% 29.86 in 10.0 mi SW 10.4 mph - N/A   Clear
5:15 AM 63.3 °F 48.4 °F 58% 29.85 in 10.0 mi SW 9.2 mph - N/A   Clear
5:35 AM 62.8 °F 48.2 °F 59% 29.85 in 10.0 mi WSW 15.0 mph - N/A   Clear
5:55 AM 61.7 °F 49.1 °F 63% 29.85 in 10.0 mi WSW 13.8 mph - N/A   Clear
6:15 AM 60.8 °F 49.5 °F 66% 29.85 in 10.0 mi WSW 15.0 mph 19.6 mph N/A   Clear
6:35 AM 60.1 °F 49.5 °F 68% 29.86 in 10.0 mi WSW 16.1 mph - N/A   Clear
6:55 AM 60.1 °F 49.5 °F 68% 29.87 in 10.0 mi WSW 12.7 mph - N/A   Clear
7:15 AM 61.0 °F 49.1 °F 65% 29.88 in 10.0 mi WSW 15.0 mph 21.9 mph N/A   Clear
7:35 AM 62.4 °F 48.0 °F 59% 29.87 in 10.0 mi WSW 13.8 mph 19.6 mph N/A   Clear
7:55 AM 63.3 °F 47.5 °F 56% 29.88 in 10.0 mi WSW 11.5 mph - N/A   Clear
8:15 AM 66.0 °F 46.9 °F 50% 29.88 in 10.0 mi WSW 18.4 mph 24.2 mph N/A   Clear
8:35 AM 68.0 °F 46.8 °F 47% 29.88 in 10.0 mi WSW 18.4 mph 27.6 mph N/A   Clear
8:55 AM 69.8 °F 45.9 °F 42% 29.88 in 10.0 mi WSW 23.0 mph 27.6 mph N/A   Clear
9:15 AM 71.8 °F 45.3 °F 39% 29.88 in 10.0 mi WSW 20.7 mph - N/A   Clear
9:35 AM 73.4 °F 45.1 °F 36% 29.88 in 10.0 mi SW 20.7 mph 25.3 mph N/A   Clear
9:55 AM 74.1 °F 46.0 °F 37% 29.88 in 10.0 mi SW 18.4 mph - N/A   Clear
10:15 AM 76.3 °F 45.3 °F 33% 29.88 in 10.0 mi SW 18.4 mph 24.2 mph N/A   Clear
10:35 AM 78.3 °F 43.5 °F 29% 29.88 in 10.0 mi SSW 18.4 mph 25.3 mph N/A   Clear
10:55 AM 79.7 °F 43.2 °F 27% 29.87 in 10.0 mi SSW 23.0 mph 27.6 mph N/A   Clear
11:15 AM 80.8 °F 43.5 °F 27% 29.87 in 10.0 mi South 25.3 mph 31.1 mph N/A   Clear
11:35 AM 81.7 °F 43.0 °F 25% 29.86 in 10.0 mi SSW 26.5 mph 32.2 mph N/A   Clear
11:55 AM 82.8 °F 44.6 °F 26% 29.86 in 10.0 mi South 23.0 mph 32.2 mph N/A   Clear
12:15 PM 83.3 °F 45.3 °F 26% 29.85 in 10.0 mi SW 23.0 mph 32.2 mph N/A   Clear
12:35 PM 83.1 °F 46.0 °F 27% 29.85 in 10.0 mi SSW 21.9 mph 31.1 mph N/A   Clear
12:55 PM 82.0 °F 46.4 °F 29% 29.84 in 10.0 mi South 21.9 mph 29.9 mph N/A   Clear
1:15 PM 84.6 °F 46.8 °F 27% 29.85 in 10.0 mi South 23.0 mph 29.9 mph N/A   Clear
1:35 PM 84.0 °F 47.3 °F 28% 29.84 in 10.0 mi SSW 21.9 mph 27.6 mph N/A   Clear
1:55 PM 84.9 °F 47.3 °F 27% 29.83 in 10.0 mi South 21.9 mph 26.5 mph N/A   Clear
2:15 PM 86.0 °F 47.7 °F 26% 29.82 in 10.0 mi SSW 18.4 mph 26.5 mph N/A   Clear
2:35 PM 85.8 °F 47.3 °F 26% 29.81 in 10.0 mi SSW 17.3 mph 25.3 mph N/A   Clear
2:55 PM 87.8 °F 44.4 °F 22% 29.81 in 10.0 mi SW 18.4 mph 25.3 mph N/A   Clear
3:15 PM 88.3 °F 42.4 °F 20% 29.80 in 10.0 mi SSW 15.0 mph 21.9 mph N/A   Clear
3:35 PM 89.6 °F 45.1 °F 21% 29.80 in 10.0 mi South 16.1 mph 20.7 mph N/A   Clear
3:55 PM 90.1 °F 42.4 °F 19% 29.80 in 10.0 mi South 15.0 mph 25.3 mph N/A   Clear
4:15 PM 90.0 °F 43.7 °F 20% 29.79 in 10.0 mi South 16.1 mph 24.2 mph N/A   Clear
4:35 PM 90.3 °F 40.1 °F 17% 29.78 in 10.0 mi South 12.7 mph 19.6 mph N/A   Clear
4:55 PM 91.0 °F 39.2 °F 16% 29.78 in 10.0 mi SSE 17.3 mph - N/A   Clear
5:15 PM 91.0 °F 37.8 °F 15% 29.78 in 10.0 mi South 13.8 mph 20.7 mph N/A   Clear
5:35 PM 91.4 °F 36.7 °F 15% 29.77 in 10.0 mi South 19.6 mph - N/A   Clear
5:55 PM 90.7 °F 35.8 °F 14% 29.77 in 10.0 mi SSE 12.7 mph 21.9 mph N/A   Clear
6:15 PM 90.0 °F 36.1 °F 15% 29.76 in 10.0 mi SSE 15.0 mph 18.4 mph N/A   Clear
6:35 PM 89.6 °F 38.3 °F 16% 29.76 in 10.0 mi SSE 12.7 mph - N/A   Clear
6:55 PM 89.1 °F 37.4 °F 16% 29.76 in 10.0 mi SE 18.4 mph 25.3 mph N/A   Clear
7:15 PM 88.7 °F 32.2 °F 13% 29.75 in 10.0 mi SSE 18.4 mph 21.9 mph N/A   Clear
7:35 PM 88.9 °F 32.0 °F 13% 29.75 in 10.0 mi SSE 13.8 mph 17.3 mph N/A   Clear
7:55 PM 88.7 °F 31.8 °F 13% 29.75 in 10.0 mi South 15.0 mph - N/A   Clear
8:15 PM 87.8 °F 30.0 °F 13% 29.75 in 10.0 mi South 10.4 mph - N/A   Clear
8:35 PM 85.3 °F 31.6 °F 15% 29.74 in 10.0 mi SSE 8.1 mph - N/A   Clear
8:55 PM 81.3 °F 44.4 °F 27% 29.75 in 10.0 mi SE 10.4 mph - N/A   Clear
9:15 PM 79.2 °F 46.4 °F 31% 29.75 in 10.0 mi SSE 9.2 mph - N/A   Clear
9:35 PM 77.5 °F 46.4 °F 33% 29.76 in 10.0 mi SE 9.2 mph - N/A   Clear
9:55 PM 73.4 °F 46.6 °F 38% 29.78 in 10.0 mi ESE 9.2 mph - N/A   Clear
10:15 PM 72.0 °F 47.3 °F 41% 29.79 in 10.0 mi ESE 8.1 mph - N/A   Clear
10:35 PM 70.9 °F 50.2 °F 48% 29.80 in 10.0 mi East 8.1 mph - N/A   Clear
10:55 PM 70.5 °F 53.8 °F 55% 29.81 in 10.0 mi ESE 9.2 mph - N/A   Clear
11:15 PM 69.8 °F 55.8 °F 61% 29.81 in 10.0 mi ESE 10.4 mph - N/A   Clear
11:35 PM 69.6 °F 57.0 °F 64% 29.81 in 10.0 mi SE 9.2 mph - N/A   Clear
11:55 PM 70.0 °F 58.1 °F 66% 29.81 in 10.0 mi SE 8.1 mph - N/A   Clear